MMMMMMCB

Guest
Details From MMMM - GENERAL FRANCISCO J MUJICA INTL
To MMCB - GENERAL MARIANO MATAMOROS
Flight Number -
Tags generated
Created
Modified
Stats Distance 117 nm / 217 km
Max Altitude 5,300 ft / 1,615 m
Waypoints 3
Social Downloads 4
Likes 0
Share

Download

Looking for another format? Having issues loading an existing format? Contact us
Advertisement - Login to hide

Notes

Basic altitude profile: - Ascent Rate: 2500ft/min - Ascent Speed: 250kts - Cruise Altitude: 35000ft - Cruise Speed: 420kts - Descent Rate: 1500ft/min - Descent Speed: 250kts Options: - Use NATs: no - Use PACOTS: no - Use low airways: yes - Use high airways: no

Route

MMMM DERVI MMCB

ID Type Via Altitude (ft/m) Position (lat/lon) Dist (leg/tot) Name
O MMMM APT - 0 / 0 19.85049 / -101.02526 - / 0 nm GENERAL FRANCISCO J MUJICA INTL
DERVI FIX - 5,300 / 1,615 19.08816 / -99.60619 92 / 92 nm
O MMCB APT - 0 / 0 18.83476 / -99.26130 24 / 117 nm GENERAL MARIANO MATAMOROS

Altitude Profile

Advertisement - Login to hide

MMMM

Details ICAO MMMM (MLM)
Name General Francisco J Mujica intl
Region Mexico
Timezone America/Mexico_City (UTC-5.0)
Stats Elevation 6,033 ft / 1,839 m (AMSL)
Location 19.849900° -101.025000°
Runways 1
Magnetic Variation 4.926° E

METAR

Not found

TAF

TAF AMD MMMM 242009Z 2420/2524 00000KT 4SM HZ SCT030CB BKN090 BKN250 TEMPO 2421/2501 4SM -TSRA BKN030CB OVC090 FM250100 16005KT 6SM HZ SCT090 BKN250 FM251000 00000KT 4SM HZ BKN915 BKN250 FM251600 17008KT 6SM HZ SCT250 FM252000 18010KT 6SM HZ BKN030 BKN250

Decode

Departure Runways

ID Width Length Bearing (true/mag) Surface Threshold Overrun Markings Lighting
05 148 ft / 45 m 11,186 ft / 3,410 m 54.47° / 49.54° ASPHALT 0 ft / 0 m 190 ft / 58 m PREC-APP EDGE THRESHOLD ODALS
23 148 ft / 45 m 11,186 ft / 3,410 m 234.48° / 229.55° ASPHALT 0 ft / 0 m 177 ft / 54 m PREC-APP EDGE THRESHOLD SSALF

MMCB

Details ICAO MMCB (CVJ)
Name General Mariano Matamoros
Region Mexico
Timezone America/Mexico_City (UTC-5.0)
Stats Elevation 4,276 ft / 1,303 m (AMSL)
Location 18.834800° -99.261400°
Runways 1
Magnetic Variation 4.234° E

METAR

MMCB 241950Z 14006KT 5SM FEW030 SCT250 30/11 A2993 RMK 8/130 DSNT CB NW AC HZY

Decode

TAF

TAF TAF MMCB 241630Z 2418/2518 20010KT 5SM HZ SCT020 FM242100 22012KT 5SM HZ BKN025 TEMPO 2422/2502 4SM TSRA BKN020CB FM250300 00000KT P6SM SCT100 BKN200 FM251200 00000KT 4SM HZ FU SCT200

Decode

Destination Runways

ID Width Length Bearing (true/mag) Surface Threshold Overrun Markings Lighting
02 148 ft / 45 m 9,481 ft / 2,890 m 31.52° / 27.29° ASPHALT 1,322 ft / 403 m 200 ft / 61 m PREC-APP EDGE THRESHOLD ODALS
20 148 ft / 45 m 9,481 ft / 2,890 m 211.53° / 207.29° ASPHALT 269 ft / 82 m 0 ft / 0 m PREC-APP EDGE THRESHOLD ODALS

Popular Alternatives